Notices

What's New in latest Release from April 7th, 2021:

- Updated Glossary, including Speed of Maximum Gust, and Total Hourly Precipitation

- Updated national and regional climate services offices contacts and prices information

- Addition of station inventory lists for 1981-2010, 1971-2000, and 1961-1990 Normals.

If you haven't already, please take our survey and provide feedback about our website: https://eccc.sondage-survey.ca/f/LanguageSelection.aspx?s=442ca660-fcf1-47c0-95a9-59707d6fd709

Hourly Data Report for December 25, 2019

EUREKA CLIMATE
NUNAVUT
Current Station Operator: ECCC - MSC

79°59'21.000" N
85°56'02.000" W
10.00 m
2401199
71613
NEK

Download Data

Hourly Data (December 2019)
Hourly Data Report for December 25, 2019
TIME
LST
Temp Definition
°C
Dew Point Definition
°C
Rel Hum Definition
%
Precip. Amount Definition
mm

Wind Dir Definition
10's deg

Wind Spd Definition
km/h
Visibility Definition
km
Stn Press Definition
kPa
Hmdx Definition


Wind Chill Definition


Weather Definition


00:00 -33.5 -36.7 73 0.0 6 3   101.79   -37 LegendNANA
01:00 -32.9 -36.0 73 0.0 9 3   101.77   -37 LegendNANA
02:00 -32.8 -36.0 73 0.0 13 7   101.78   -41 LegendNANA
03:00 -30.4 -33.3 76 0.0 7 5   101.79   -36 LegendNANA
04:00 -32.0 -35.0 74 0.0 10 5   101.79   -38 LegendNANA
05:00 -31.6 -34.6 75 0.0 12 3   101.75   -35 LegendNANA
06:00 -31.9 -35.0 74 0.0 11 4   101.73   -37 LegendNANA
07:00 -32.1 -35.1 74 0.0 11 6   101.69   -39 LegendNANA
08:00 -32.5 -35.6 74 0.0 11 7   101.68   -40 LegendNANA
09:00 -32.5 -35.6 74 0.0 11 8   101.70   -41 LegendNANA
10:00 -32.1 -35.2 74 0.0 12 4   101.69   -37 LegendNANA
11:00 -29.5 -32.2 77 0.0 6 9   101.67   -38 LegendNANA
12:00 -30.7 -33.7 76 0.0 11 4   101.66   -35 LegendNANA
13:00 -29.2 -31.9 77 0.0 9 7   101.64   -36 LegendNANA
14:00 -27.7 -30.3 79 0.0 4 4   101.65   -32 LegendNANA
15:00 -25.4 -27.7 81 0.0 4 7   101.66   -32 LegendNANA
16:00 -27.0 -29.5 79 0.0 28 1   101.67   -28 LegendNANA
17:00 -23.8 -25.9 83 0.0 7 2   101.65   -26 LegendNANA
18:00 -23.3 -25.4 83 0.0 5 6   101.62   -29 LegendNANA
19:00 -22.8 -24.9 83 0.0 14 6   101.60   -28 LegendNANA
20:00 -21.3 -23.1 85 0.0 10 12   101.60   -30 LegendNANA
21:00 -20.6 -22.3 86 0.0 5 7   101.62   -26 LegendNANA
22:00 -21.1 -22.9 85 0.0 8 9   101.63   -28 LegendNANA
23:00 -20.1 -21.8 86 0.0 35 2   101.65   -22 LegendNANA

Notes on Data Quality.

Legend

  • E = Estimated
  • M = Missing
  • NA = Not Available*
  • [empty] = Indicates an unobserved value
Date modified: